When you browse on this site, cookies collect data to enhance your experience and personalize the content and advertising you see.
Visit our Privacy Policy to learn more. By continuing to use the site, you agree to this use of cookies and data.
  • In United Kingdom
  • List of Countries
  • For 7 days
  • Water Temperature
  • Weather Map
  • Weather Widgets
  • user-avatar
    Login

    Hourly Weather Ganja

    Today, 20 August, Tuesday

    Time Temperature Precipitation Wind Pressure Humidity
    00:00 +27°C° 0 mm 3 mps 728 mmHg 32%
    01:00 +26°C° 0 mm 2 mps 728 mmHg 33%
    02:00 +25°C° 0 mm 2 mps 728 mmHg 34%
    03:00 +24°C° 0 mm 1 mps 727 mmHg 37%
    04:00 +24°C° 0 mm 1 mps 728 mmHg 37%
    05:00 +24°C° 0 mm 1 mps 728 mmHg 37%
    06:00 +24°C° 0 mm 1 mps 728 mmHg 38%
    07:00 +26°C° 0 mm 1 mps 728 mmHg 34%
    08:00 +28°C° 0 mm 2 mps 728 mmHg 31%
    09:00 +31°C° 0 mm 2 mps 728 mmHg 27%
    10:00 +33°C° 0 mm 3 mps 728 mmHg 23%
    11:00 +35°C° 0 mm 3 mps 728 mmHg 20%
    12:00 +37°C° 0 mm 4 mps 728 mmHg 16%
    13:00 +38°C° 0 mm 4 mps 728 mmHg 15%
    14:00 +39°C° 0 mm 5 mps 727 mmHg 13%
    15:00 +40°C° 0 mm 5 mps 727 mmHg 12%
    16:00 +39°C° 0 mm 5 mps 727 mmHg 13%
    17:00 +37°C° 0 mm 4 mps 727 mmHg 15%
    18:00 +35°C° 0 mm 4 mps 727 mmHg 17%
    19:00 +34°C° 0 mm 4 mps 727 mmHg 18%
    20:00 +32°C° 0 mm 4 mps 727 mmHg 20%
    21:00 +29°C° 0 mm 4 mps 727 mmHg 21%
    22:00 +28°C° 0 mm 4 mps 727 mmHg 24%
    23:00 +27°C° 0 mm 3 mps 727 mmHg 27%

    Tomorrow, 21 August, Wednesday

    Time Temperature Precipitation Wind Pressure Humidity
    00:00 +26°C° 0 mm 3 mps 727 mmHg 30%
    01:00 +25°C° 0 mm 2 mps 727 mmHg 33%
    02:00 +24°C° 0 mm 2 mps 727 mmHg 35%
    03:00 +23°C° 0 mm 1 mps 727 mmHg 37%
    04:00 +24°C° 0 mm 1 mps 727 mmHg 36%
    05:00 +24°C° 0 mm 1 mps 727 mmHg 35%
    06:00 +24°C° 0 mm 1 mps 727 mmHg 35%
    07:00 +26°C° 0 mm 1 mps 727 mmHg 32%
    08:00 +28°C° 0 mm 2 mps 727 mmHg 29%
    09:00 +30°C° 0 mm 2 mps 727 mmHg 26%
    10:00 +32°C° 0 mm 2 mps 727 mmHg 24%
    11:00 +34°C° 0 mm 3 mps 726 mmHg 21%
    12:00 +36°C° 0 mm 3 mps 726 mmHg 19%
    13:00 +37°C° 0 mm 4 mps 725 mmHg 17%
    14:00 +38°C° 0 mm 4 mps 725 mmHg 16%
    15:00 +39°C° 0 mm 5 mps 725 mmHg 14%
    16:00 +37°C° 0 mm 4 mps 724 mmHg 16%
    17:00 +36°C° 0 mm 4 mps 724 mmHg 18%
    18:00 +35°C° 0 mm 4 mps 724 mmHg 19%
    19:00 +33°C° 0 mm 3 mps 724 mmHg 21%
    20:00 +31°C° 0 mm 3 mps 724 mmHg 22%
    21:00 +29°C° 0 mm 3 mps 724 mmHg 24%
    22:00 +28°C° 0 mm 3 mps 724 mmHg 26%
    23:00 +27°C° 0 mm 3 mps 724 mmHg 28%

    Day after tomorrow, 22 August, Thursday

    Time Temperature Precipitation Wind Pressure Humidity
    00:00 +26°C° 0 mm 3 mps 724 mmHg 30%
    01:00 +25°C° 0 mm 2 mps 724 mmHg 32%
    02:00 +24°C° 0 mm 2 mps 724 mmHg 33%
    03:00 +24°C° 0 mm 1 mps 724 mmHg 35%
    04:00 +24°C° 0 mm 1 mps 724 mmHg 36%
    05:00 +24°C° 0 mm 1 mps 724 mmHg 36%
    06:00 +24°C° 0 mm 1 mps 724 mmHg 36%
    07:00 +26°C° 0 mm 1 mps 724 mmHg 33%
    08:00 +28°C° 0 mm 1 mps 724 mmHg 29%
    09:00 +30°C° 0 mm 2 mps 724 mmHg 26%
    10:00 +33°C° 0 mm 3 mps 724 mmHg 23%
    11:00 +35°C° 0 mm 4 mps 723 mmHg 20%
    12:00 +37°C° 0 mm 5 mps 723 mmHg 17%
    13:00 +37°C° 0 mm 5 mps 723 mmHg 16%
    14:00 +39°C° 0 mm 6 mps 722 mmHg 15%
    15:00 +39°C° 0 mm 6 mps 722 mmHg 14%
    16:00 +38°C° 0 mm 6 mps 722 mmHg 15%
    17:00 +36°C° 0 mm 5 mps 722 mmHg 17%
    18:00 +35°C° 0 mm 5 mps 722 mmHg 18%
    19:00 +33°C° 0 mm 5 mps 722 mmHg 19%
    20:00 +32°C° 0 mm 5 mps 723 mmHg 20%
    21:00 +29°C° 0 mm 5 mps 723 mmHg 21%
    22:00 +28°C° 0 mm 4 mps 723 mmHg 22%
    23:00 +27°C° 0 mm 4 mps 723 mmHg 23%

    23 August, Friday

    Time Temperature Precipitation Wind Pressure Humidity
    00:00 +26°C° 0 mm 3 mps 724 mmHg 25%
    01:00 +25°C° 0 mm 3 mps 724 mmHg 26%
    02:00 +24°C° 0 mm 2 mps 723 mmHg 27%
    03:00 +24°C° 0 mm 2 mps 723 mmHg 29%
    04:00 +24°C° 0 mm 2 mps 724 mmHg 29%
    05:00 +24°C° 0 mm 2 mps 724 mmHg 30%
    06:00 +24°C° 0 mm 1 mps 724 mmHg 31%
    07:00 +26°C° 0 mm 2 mps 724 mmHg 28%
    08:00 +28°C° 0 mm 2 mps 724 mmHg 26%
    09:00 +30°C° 0 mm 2 mps 724 mmHg 24%
    10:00 +33°C° 0 mm 3 mps 724 mmHg 22%
    11:00 +35°C° 0 mm 5 mps 724 mmHg 20%
    12:00 +38°C° 0 mm 6 mps 724 mmHg 18%
    13:00 +39°C° 0 mm 6 mps 723 mmHg 18%
    14:00 +39°C° 0 mm 7 mps 723 mmHg 18%
    15:00 +40°C° 0 mm 7 mps 723 mmHg 17%
    16:00 +39°C° 0 mm 6 mps 723 mmHg 19%
    17:00 +36°C° 0 mm 6 mps 723 mmHg 21%
    18:00 +35°C° 0 mm 5 mps 723 mmHg 23%
    19:00 +34°C° 0 mm 5 mps 723 mmHg 25%
    20:00 +32°C° 0 mm 5 mps 724 mmHg 26%
    21:00 +30°C° 0 mm 5 mps 724 mmHg 28%
    22:00 +29°C° 0 mm 5 mps 724 mmHg 29%
    23:00 +28°C° 0 mm 4 mps 724 mmHg 30%

    24 August, Saturday

    Time Temperature Precipitation Wind Pressure Humidity
    00:00 +27°C° 0 mm 4 mps 724 mmHg 31%
    01:00 +26°C° 0 mm 3 mps 724 mmHg 33%
    02:00 +26°C° 0 mm 3 mps 724 mmHg 34%
    03:00 +25°C° 0 mm 2 mps 724 mmHg 35%
    04:00 +25°C° 0 mm 2 mps 724 mmHg 37%
    05:00 +25°C° 0 mm 2 mps 724 mmHg 38%
    06:00 +25°C° 0 mm 1 mps 724 mmHg 40%
    07:00 +27°C° 0 mm 2 mps 725 mmHg 38%
    08:00 +29°C° 0 mm 2 mps 725 mmHg 35%
    09:00 +31°C° 0 mm 2 mps 725 mmHg 33%
    10:00 +33°C° 0 mm 3 mps 725 mmHg 30%
    11:00 +35°C° 0 mm 5 mps 724 mmHg 27%
    12:00 +38°C° 0 mm 6 mps 724 mmHg 24%
    13:00 +39°C° 0 mm 6 mps 724 mmHg 23%
    14:00 +39°C° 0 mm 7 mps 724 mmHg 22%
    15:00 +40°C° 0 mm 7 mps 723 mmHg 20%
    16:00 +38°C° 0.1 mm 6 mps 723 mmHg 24%
    17:00 +36°C° 0.1 mm 5 mps 724 mmHg 28%
    18:00 +35°C° 0.1 mm 4 mps 724 mmHg 31%
    19:00 +33°C° 0.2 mm 4 mps 724 mmHg 34%
    20:00 +30°C° 0.2 mm 4 mps 725 mmHg 37%
    21:00 +28°C° 0.2 mm 5 mps 725 mmHg 40%
    22:00 +28°C° 0.1 mm 4 mps 725 mmHg 41%
    23:00 +27°C° 0.1 mm 4 mps 726 mmHg 41%

    25 August, Sunday

    Time Temperature Precipitation Wind Pressure Humidity
    00:00 +27°C° 0.1 mm 3 mps 726 mmHg 41%
    01:00 +26°C° 0 mm 2 mps 726 mmHg 42%
    02:00 +25°C° 0 mm 2 mps 726 mmHg 43%
    03:00 +24°C° 0 mm 1 mps 725 mmHg 44%
    04:00 +24°C° 0 mm 1 mps 726 mmHg 46%
    05:00 +24°C° 0 mm 1 mps 726 mmHg 47%
    06:00 +24°C° 0 mm 1 mps 726 mmHg 49%
    07:00 +26°C° 0 mm 1 mps 726 mmHg 44%
    08:00 +27°C° 0 mm 2 mps 726 mmHg 40%
    09:00 +29°C° 0 mm 2 mps 726 mmHg 36%
    10:00 +31°C° 0 mm 2 mps 726 mmHg 32%
    11:00 +32°C° 0 mm 2 mps 726 mmHg 28%
    12:00 +35°C° 0 mm 3 mps 725 mmHg 24%
    13:00 +36°C° 0 mm 3 mps 725 mmHg 21%
    14:00 +36°C° 0 mm 4 mps 725 mmHg 18%
    15:00 +37°C° 0 mm 4 mps 724 mmHg 16%
    16:00 +36°C° 0.2 mm 4 mps 725 mmHg 20%
    17:00 +34°C° 0.2 mm 3 mps 725 mmHg 24%
    18:00 +33°C° 0.2 mm 3 mps 725 mmHg 29%
    19:00 +31°C° 0.1 mm 3 mps 726 mmHg 33%
    20:00 +30°C° 0.1 mm 4 mps 726 mmHg 38%
    21:00 +29°C° 0.1 mm 4 mps 727 mmHg 42%
    22:00 +28°C° 0 mm 4 mps 726 mmHg 42%
    23:00 +27°C° 0 mm 3 mps 726 mmHg 42%
    Show more